Bar Harbor, ME

12:36 AM EST on December 14, 2019 (GMT -0500)
Hancock County-Bar Harbor

Weather History for KBHB - October, 2019

Change the Weather History Date:

Sunday, October 6, 2019

  Actual Average Record
Temperature  
Mean Temperature 44 °F -  
Max Temperature 59 °F 61 °F 72 °F (1963)
Min Temperature 30 °F 45 °F 26 °F (2004)
Degree Days  
Heating Degree Days 20    
Moisture  
Dew Point 41 °F    
Average Humidity 87    
Maximum Humidity 100    
Minimum Humidity 60    
Precipitation  
Precipitation 0.00 in - - ()
Sea Level Pressure  
Sea Level Pressure 30.34 in    
Wind  
Wind Speed 5 mph (SSW)    
Max Wind Speed 22 mph    
Max Gust Speed 24 mph    
Visibility 9 miles    
Events Rain    
Averages and records for this station are not official NWS values.
T = Trace of Precipitation, MM = Missing Value Source: NWS Daily Summary

Daily Weather History Graph

Daily Weather History Graph

Search for Another Location

Airport or City:

Astronomy

Oct. 06, 2019 Rise Set
Actual Time 6:37 AM EDT 6:05 PM EDT
Civil Twilight 6:07 AM EDT 6:34 PM EDT
Nautical Twilight 5:34 AM EDT 7:08 PM EDT
Astronomical Twilight 5:00 AM EDT 7:41 PM EDT
Moon 2:58 PM EDT (10/6) No Moon Set
Length of Visible Light 12h 26m
Length of Day
11h 28m
First Quarter, 59% of the Moon is Illuminated
Oct 6
First Quarter
Oct 13
Full
Oct 21
Last Quarter
Oct 27
New
Nov 4
First Quarter

Hourly Weather History & Observations

Time (EDT) Temp. Windchill Dew Point Humidity Pressure Visibility Wind Dir Wind Speed Gust Speed Precip Events Conditions
12:56 AM 37.0 °F - 36.0 °F 96% 30.38 in 10.0 mi Calm Calm - N/A   Clear
1:56 AM 36.0 °F - 36.0 °F 100% 30.38 in 10.0 mi Calm Calm - N/A   Clear
2:56 AM 34.0 °F - 34.0 °F 100% 30.38 in 10.0 mi Calm Calm - N/A   Clear
3:34 AM 33.8 °F - 33.8 °F 100% 30.37 in 10.0 mi Calm Calm - N/A   Mostly Cloudy
3:56 AM 34.0 °F - 33.1 °F 96% 30.38 in 10.0 mi Calm Calm - N/A   Scattered Clouds
4:56 AM 32.0 °F 28.7 °F 32.0 °F 100% 30.39 in 10.0 mi NNW 3.5 mph - N/A   Clear
5:45 AM 30.2 °F - 30.2 °F 100% 30.38 in 10.0 mi Calm Calm - N/A   Mostly Cloudy
5:56 AM 30.9 °F - 30.9 °F 100% 30.39 in 10.0 mi Calm Calm - N/A   Mostly Cloudy
6:08 AM 30.2 °F - 30.2 °F 100% 30.39 in 1.5 mi Calm Calm - N/A   Overcast
6:10 AM 30.2 °F - 30.2 °F 100% 30.39 in 0.8 mi Calm Calm - N/A   Overcast
6:20 AM 30.2 °F - 30.2 °F 100% 30.39 in 1.2 mi Calm Calm - N/A   Mostly Cloudy
6:45 AM 30.2 °F - 30.2 °F 100% 30.39 in 3.0 mi Calm Calm - N/A   Mostly Cloudy
6:56 AM 30.9 °F - 30.0 °F 96% 30.40 in 10.0 mi Calm Calm - N/A   Partly Cloudy
7:56 AM 37.0 °F - 37.0 °F 100% 30.40 in 10.0 mi Calm Calm - N/A   Clear
8:56 AM 51.1 °F - 48.0 °F 89% 30.39 in 10.0 mi SSW 4.6 mph - N/A   Clear
9:56 AM 55.9 °F - 42.1 °F 60% 30.38 in 10.0 mi SW 16.1 mph 20.7 mph N/A   Clear
10:56 AM 55.0 °F - 42.1 °F 62% 30.38 in 10.0 mi SSW 13.8 mph - N/A   Clear
11:56 AM 57.0 °F - 44.1 °F 62% 30.36 in 10.0 mi South 21.9 mph - N/A   Clear
12:56 PM 59.0 °F - 45.0 °F 60% 30.35 in 10.0 mi SSW 18.4 mph 21.9 mph N/A   Clear
1:56 PM 57.9 °F - 46.0 °F 65% 30.34 in 10.0 mi SSW 16.1 mph - N/A   Scattered Clouds
2:56 PM 55.9 °F - 46.9 °F 72% 30.32 in 10.0 mi South 19.6 mph - N/A   Overcast
3:56 PM 55.0 °F - 46.9 °F 74% 30.32 in 10.0 mi SSW 16.1 mph - N/A   Overcast
4:56 PM 55.0 °F - 48.0 °F 77% 30.31 in 10.0 mi SSW 17.3 mph 24.2 mph N/A   Overcast
5:56 PM 55.0 °F - 50.0 °F 83% 30.29 in 10.0 mi South 17.3 mph - N/A   Overcast
6:56 PM 55.9 °F - 51.1 °F 84% 30.28 in 10.0 mi SSW 17.3 mph - N/A   Overcast
7:19 PM 55.4 °F - 51.8 °F 88% 30.27 in 10.0 mi SSW 18.4 mph 24.2 mph N/A   Overcast
7:56 PM 55.9 °F - 52.0 °F 87% 30.27 in 10.0 mi South 15.0 mph - N/A   Overcast
8:56 PM 57.0 °F - 54.0 °F 89% 30.25 in 10.0 mi SSW 16.1 mph - 0.00 in   Overcast
9:56 PM 57.0 °F - 54.0 °F 89% 30.23 in 5.0 mi South 15.0 mph - 0.00 in Rain Light Rain
10:56 PM 57.9 °F - 55.0 °F 90% 30.21 in 10.0 mi SSW 12.7 mph 20.7 mph 0.00 in Rain Light Rain
11:56 PM 59.0 °F - 55.0 °F 87% 30.20 in 10.0 mi SSW 13.8 mph - 0.00 in   Overcast